Location: Cahas Mountain Overlook
(37.0833°N, 80.1000°W)
Time: 12:56:59
(UTC-04:00)

FO-29 - Pass Details

Date: 30 April 2024
Orbit: 801 x 1320 km, 98.6° (Epoch: 21 May)

Event Time Altitude Azimuth Distance (km) Brightness Sun altitude
Rises 01:32:17 0° 30° (NNE) 4,309 13.6 -37.9°
Reaches altitude 10° 01:36:09 10° 48° (NE) 3,351 12.7 -37.8°
Maximum altitude 01:41:14 18° 89° (E) 2,742 11.8 -37.7°
Enters shadow 01:41:42 18° 93° (E) 2,745 11.8 -37.7°
